Year,Month,Day,Hour,Minute,Value (Times are PST for temperature in C)
2009,07,28,11,22,28.00
2009,07,28,11,24,27.90
2009,07,28,11,25,27.90
2009,07,28,11,26,27.90
2009,07,28,11,27,27.80
2009,07,28,11,28,27.80
2009,07,28,11,29,27.80
2009,07,28,11,30,27.80
2009,07,28,11,31,27.90
2009,07,28,11,32,27.90
2009,07,28,11,33,28.00
2009,07,28,11,34,28.10
2009,07,28,11,35,28.20
2009,07,28,11,36,28.30
2009,07,28,11,37,28.20
2009,07,28,11,38,28.20
2009,07,28,11,39,28.10
2009,07,28,11,40,28.10
2009,07,28,11,41,28.10
2009,07,28,11,42,28.10
2009,07,28,11,43,28.00
2009,07,28,11,44,28.00
2009,07,28,11,45,28.00
2009,07,28,11,46,28.00
2009,07,28,11,47,28.10
2009,07,28,11,48,28.10
2009,07,28,11,49,28.10
2009,07,28,11,50,28.10
2009,07,28,11,51,28.10
2009,07,28,11,52,28.10
2009,07,28,11,53,28.20
2009,07,28,11,54,28.30
2009,07,28,11,55,28.40
2009,07,28,11,56,28.60
2009,07,28,11,57,28.70
2009,07,28,11,58,28.80
2009,07,28,11,59,28.90
2009,07,28,12,00,28.90
2009,07,28,12,01,29.00
2009,07,28,12,02,29.10
2009,07,28,12,03,29.20
2009,07,28,12,04,29.30
2009,07,28,12,05,29.20
2009,07,28,12,06,29.20
2009,07,28,12,07,29.20
2009,07,28,12,08,29.20
2009,07,28,12,09,29.10
2009,07,28,12,10,29.00
2009,07,28,12,11,28.90
2009,07,28,12,12,28.90
2009,07,28,12,13,28.80
2009,07,28,12,14,28.90
2009,07,28,12,15,29.00
2009,07,28,12,16,29.20
2009,07,28,12,17,29.30
2009,07,28,12,18,29.40
2009,07,28,12,19,29.50
2009,07,28,12,20,29.50
2009,07,28,12,21,29.60
2009,07,28,12,22,29.70
2009,07,28,12,23,29.70
2009,07,28,12,24,29.70
2009,07,28,12,25,29.60
2009,07,28,12,26,29.60
2009,07,28,12,27,29.70
2009,07,28,12,28,29.70
2009,07,28,12,29,29.70
2009,07,28,12,30,29.70
2009,07,28,12,31,29.70
2009,07,28,12,32,29.70
2009,07,28,12,33,29.80
2009,07,28,12,34,29.90
2009,07,28,12,35,30.00
2009,07,28,12,36,30.10
2009,07,28,12,37,30.20
2009,07,28,12,38,30.20
2009,07,28,12,39,30.20
2009,07,28,12,40,30.30
2009,07,28,12,41,30.30
2009,07,28,12,42,30.40
2009,07,28,12,43,30.30
2009,07,28,12,44,30.30
2009,07,28,12,45,30.40
2009,07,28,12,46,30.40
2009,07,28,12,47,30.50
2009,07,28,12,48,30.50
2009,07,28,12,49,30.60
2009,07,28,12,50,30.60
2009,07,28,12,51,30.70
2009,07,28,12,52,30.60
2009,07,28,12,53,30.60
2009,07,28,12,54,30.70
2009,07,28,12,55,30.70
2009,07,28,12,56,30.80
2009,07,28,12,57,30.80
2009,07,28,12,58,30.80
2009,07,28,12,59,30.80
2009,07,28,13,00,30.70
2009,07,28,13,01,30.60
2009,07,28,13,02,30.60
2009,07,28,13,03,30.60
2009,07,28,13,04,30.60
2009,07,28,13,05,30.70
2009,07,28,13,06,30.70
2009,07,28,13,07,30.80
2009,07,28,13,08,30.90
2009,07,28,13,09,31.00
2009,07,28,13,10,31.20
2009,07,28,13,11,31.20
2009,07,28,13,12,31.20
2009,07,28,13,13,31.30
2009,07,28,13,14,31.20
2009,07,28,13,15,31.10
2009,07,28,13,16,31.10
2009,07,28,13,17,31.00
2009,07,28,13,18,31.00
2009,07,28,13,19,30.90
2009,07,28,13,20,30.90
2009,07,28,13,21,30.90
2009,07,28,13,22,30.90
2009,07,28,13,23,30.90
2009,07,28,13,24,30.90
2009,07,28,13,25,30.90
2009,07,28,13,26,30.90
2009,07,28,13,27,31.00
2009,07,28,13,28,31.10
2009,07,28,13,29,31.10
2009,07,28,13,30,31.10
2009,07,28,13,31,31.20
2009,07,28,13,32,31.40
2009,07,28,13,33,31.40
2009,07,28,13,34,31.40
2009,07,28,13,35,31.50
2009,07,28,13,36,31.50
2009,07,28,13,37,31.50
2009,07,28,13,38,31.50
2009,07,28,13,39,31.60
2009,07,28,13,40,31.70
2009,07,28,13,41,31.70
2009,07,28,13,42,31.80
2009,07,28,13,43,31.90
2009,07,28,13,44,31.90
2009,07,28,13,45,31.80
2009,07,28,13,46,31.80
2009,07,28,13,47,31.80
2009,07,28,13,48,31.80
2009,07,28,13,49,31.80
2009,07,28,13,50,31.80
2009,07,28,13,51,31.90
2009,07,28,13,52,31.90
2009,07,28,13,53,32.00
2009,07,28,13,54,31.90
2009,07,28,13,55,31.90
2009,07,28,13,56,31.90
2009,07,28,13,57,31.90
2009,07,28,13,58,31.90
2009,07,28,13,59,32.00
2009,07,28,14,00,32.10
2009,07,28,14,01,32.10
2009,07,28,14,02,32.10
2009,07,28,14,03,32.10
2009,07,28,14,04,32.10
2009,07,28,14,05,32.00
2009,07,28,14,06,32.00
2009,07,28,14,07,32.00
2009,07,28,14,08,32.00
2009,07,28,14,09,32.00
2009,07,28,14,10,32.10
2009,07,28,14,11,32.20
2009,07,28,14,12,32.20
2009,07,28,14,13,32.20
2009,07,28,14,14,32.20
2009,07,28,14,15,32.30
2009,07,28,14,16,32.40
2009,07,28,14,17,32.50
2009,07,28,14,18,32.60
2009,07,28,14,19,32.60
2009,07,28,14,20,32.70
2009,07,28,14,21,32.80
2009,07,28,14,22,32.80
2009,07,28,14,23,32.80
2009,07,28,14,24,32.90
2009,07,28,14,25,32.80
2009,07,28,14,26,32.80
2009,07,28,14,27,32.80
2009,07,28,14,28,32.70
2009,07,28,14,29,32.70
2009,07,28,14,30,32.80
2009,07,28,14,31,32.80
2009,07,28,14,32,33.00
2009,07,28,14,33,33.10
2009,07,28,14,34,33.20
2009,07,28,14,35,33.30
2009,07,28,14,36,33.20
2009,07,28,14,37,32.90
2009,07,28,14,38,32.70
2009,07,28,14,39,32.60
2009,07,28,14,40,32.50
2009,07,28,14,41,32.40
2009,07,28,14,42,32.30
2009,07,28,14,43,32.20
2009,07,28,14,44,32.20
2009,07,28,14,45,32.20
2009,07,28,14,46,32.10
2009,07,28,14,47,32.10
2009,07,28,14,48,32.10
2009,07,28,14,49,32.10
2009,07,28,14,50,32.00
2009,07,28,14,51,31.90
2009,07,28,14,52,31.80
2009,07,28,14,53,31.80
2009,07,28,14,54,31.70
2009,07,28,14,55,31.60
2009,07,28,14,56,31.40
2009,07,28,14,57,31.30
2009,07,28,14,58,31.10
2009,07,28,14,59,31.10
2009,07,28,15,00,31.10
2009,07,28,15,01,31.20
2009,07,28,15,02,31.30
2009,07,28,15,03,31.50
2009,07,28,15,04,31.60
2009,07,28,15,05,31.80
2009,07,28,15,06,32.00
2009,07,28,15,07,32.10
2009,07,28,15,08,32.10
2009,07,28,15,09,32.20
2009,07,28,15,10,32.20
2009,07,28,15,11,32.20
2009,07,28,15,12,32.20
2009,07,28,15,13,32.10
2009,07,28,15,14,31.90
2009,07,28,15,15,31.80
2009,07,28,15,16,31.70
2009,07,28,15,17,31.70
2009,07,28,15,18,31.60
2009,07,28,15,19,31.50
2009,07,28,15,20,31.50
2009,07,28,15,21,31.40
2009,07,28,15,22,31.30
2009,07,28,15,23,31.20
2009,07,28,15,24,31.10
2009,07,28,15,25,31.00
2009,07,28,15,26,30.90
2009,07,28,15,27,30.80
2009,07,28,15,28,30.80
2009,07,28,15,29,30.80
2009,07,28,15,30,30.70
2009,07,28,15,31,30.60
2009,07,28,15,32,30.40
2009,07,28,15,33,30.30
2009,07,28,15,34,30.30
2009,07,28,15,35,30.30
2009,07,28,15,36,30.20
2009,07,28,15,37,30.10
2009,07,28,15,38,30.20
2009,07,28,15,39,30.30
2009,07,28,15,40,30.30
2009,07,28,15,41,30.40
2009,07,28,15,42,30.40
2009,07,28,15,43,30.50
2009,07,28,15,44,30.60
2009,07,28,15,45,30.60
2009,07,28,15,46,30.60
2009,07,28,15,47,30.70
2009,07,28,15,48,30.60
2009,07,28,15,49,30.60
2009,07,28,15,50,30.60
2009,07,28,15,51,30.60
2009,07,28,15,52,30.50
2009,07,28,15,53,30.50
2009,07,28,15,54,30.60
2009,07,28,15,55,30.60
2009,07,28,15,56,30.60
2009,07,28,15,57,30.60
2009,07,28,15,58,30.60
2009,07,28,15,59,30.70
2009,07,28,16,00,30.80
2009,07,28,16,01,30.80
2009,07,28,16,02,30.80
2009,07,28,16,03,30.90
2009,07,28,16,04,31.00
2009,07,28,16,05,31.10
2009,07,28,16,06,31.10
2009,07,28,16,07,31.10
2009,07,28,16,08,31.20
2009,07,28,16,09,31.20
2009,07,28,16,10,31.20
2009,07,28,16,11,31.20
2009,07,28,16,12,31.00
2009,07,28,16,13,30.90
2009,07,28,16,14,30.80
2009,07,28,16,15,30.80
2009,07,28,16,16,30.90
2009,07,28,16,17,31.10
2009,07,28,16,18,31.30
2009,07,28,16,19,31.50
2009,07,28,16,20,31.60
2009,07,28,16,21,31.70
2009,07,28,16,22,31.80
2009,07,28,16,23,31.80
2009,07,28,16,24,31.60
2009,07,28,16,25,31.50
2009,07,28,16,26,31.30
2009,07,28,16,27,31.10
2009,07,28,16,28,31.00
2009,07,28,16,29,31.00
2009,07,28,16,30,30.90
2009,07,28,16,31,30.80
2009,07,28,16,32,30.70
2009,07,28,16,33,30.70
2009,07,28,16,34,30.70
2009,07,28,16,35,30.70
2009,07,28,16,36,30.60
2009,07,28,16,37,30.70
2009,07,28,16,38,30.70
2009,07,28,16,39,30.60
2009,07,28,16,40,30.50
2009,07,28,16,41,30.40
2009,07,28,16,42,30.30
2009,07,28,16,43,30.20
2009,07,28,16,44,30.30
2009,07,28,16,45,30.30
2009,07,28,16,46,30.30
2009,07,28,16,47,30.30
2009,07,28,16,48,30.30
2009,07,28,16,49,30.30
2009,07,28,16,50,30.30
2009,07,28,16,51,30.30
2009,07,28,16,52,30.20
2009,07,28,16,53,30.20
2009,07,28,16,54,30.20
2009,07,28,16,55,30.20
2009,07,28,16,56,30.20
2009,07,28,16,57,30.20
2009,07,28,16,58,30.20
2009,07,28,16,59,30.20
2009,07,28,17,00,30.20
2009,07,28,17,01,30.30
2009,07,28,17,02,30.40
2009,07,28,17,03,30.40
2009,07,28,17,04,30.40
2009,07,28,17,05,30.50
2009,07,28,17,06,30.50
2009,07,28,17,07,30.50
2009,07,28,17,08,30.60
2009,07,28,17,09,30.60
2009,07,28,17,10,30.60
2009,07,28,17,11,30.60
2009,07,28,17,12,30.60
2009,07,28,17,13,30.60
2009,07,28,17,14,30.60
2009,07,28,17,15,30.50
2009,07,28,17,16,30.40
2009,07,28,17,17,30.40
2009,07,28,17,18,30.30
2009,07,28,17,19,30.20
2009,07,28,17,20,30.20
2009,07,28,17,21,30.20
2009,07,28,17,22,30.20
2009,07,28,17,23,30.20
2009,07,28,17,24,30.20
2009,07,28,17,25,30.20
2009,07,28,17,26,30.20
2009,07,28,17,27,30.30
2009,07,28,17,28,30.30
2009,07,28,17,29,30.20
2009,07,28,17,30,30.20
2009,07,28,17,31,30.20
2009,07,28,17,32,30.20
2009,07,28,17,33,30.20
2009,07,28,17,34,30.20
2009,07,28,17,35,30.30
2009,07,28,17,36,30.30
2009,07,28,17,37,30.30
2009,07,28,17,38,30.40
2009,07,28,17,39,30.40
2009,07,28,17,40,30.50
2009,07,28,17,41,30.50
2009,07,28,17,42,30.60
2009,07,28,17,43,30.60
2009,07,28,17,44,30.60
2009,07,28,17,45,30.60
2009,07,28,17,46,30.60
2009,07,28,17,47,30.70
2009,07,28,17,48,30.80
2009,07,28,17,49,30.80
2009,07,28,17,50,30.90
2009,07,28,17,51,30.90
2009,07,28,17,52,31.00
2009,07,28,17,53,31.00
2009,07,28,17,54,31.00
2009,07,28,17,55,30.90
2009,07,28,17,56,31.00
2009,07,28,17,57,31.00
2009,07,28,17,58,31.10
2009,07,28,17,59,31.00
2009,07,28,18,00,31.00
2009,07,28,18,01,30.90
2009,07,28,18,02,30.80
2009,07,28,18,03,30.80
2009,07,28,18,04,30.90
2009,07,28,18,05,30.90
2009,07,28,18,06,30.90
2009,07,28,18,07,30.90
2009,07,28,18,08,30.90
2009,07,28,18,09,30.90
2009,07,28,18,10,30.90
2009,07,28,18,11,30.90
2009,07,28,18,12,30.90
2009,07,28,18,13,30.90
2009,07,28,18,14,30.90
2009,07,28,18,15,31.00
2009,07,28,18,16,31.00
2009,07,28,18,17,31.00
2009,07,28,18,18,31.10
2009,07,28,18,19,31.10
2009,07,28,18,20,31.20
2009,07,28,18,21,31.30
2009,07,28,18,22,31.30
2009,07,28,18,23,31.40
2009,07,28,18,24,31.40
2009,07,28,18,25,31.50
2009,07,28,18,26,31.50
2009,07,28,18,27,31.60
2009,07,28,18,28,31.60
2009,07,28,18,29,31.60
2009,07,28,18,30,31.60
2009,07,28,18,31,31.60
2009,07,28,18,32,31.60
2009,07,28,18,33,31.60
2009,07,28,18,34,31.60
2009,07,28,18,35,31.60
2009,07,28,18,36,31.60
2009,07,28,18,37,31.70
2009,07,28,18,38,31.70
2009,07,28,18,39,31.80
2009,07,28,18,40,31.80
2009,07,28,18,41,31.80
2009,07,28,18,42,31.70
2009,07,28,18,43,31.70
2009,07,28,18,44,31.70
2009,07,28,18,45,31.60
2009,07,28,18,46,31.60
2009,07,28,18,47,31.50
2009,07,28,18,48,31.30
2009,07,28,18,49,31.10
2009,07,28,18,50,31.00
2009,07,28,18,51,30.90
2009,07,28,18,52,30.80
2009,07,28,18,53,30.70
2009,07,28,18,54,30.60
2009,07,28,18,55,30.50
2009,07,28,18,56,30.50
2009,07,28,18,57,30.40
2009,07,28,18,58,30.40
2009,07,28,18,59,30.40
2009,07,28,19,00,30.40
2009,07,28,19,01,30.30
2009,07,28,19,02,30.30
2009,07,28,19,03,30.20
2009,07,28,19,04,30.20
2009,07,28,19,05,30.10
2009,07,28,19,06,30.10
2009,07,28,19,07,30.10
2009,07,28,19,08,30.10
2009,07,28,19,09,30.00
2009,07,28,19,10,30.00
2009,07,28,19,11,29.90
2009,07,28,19,12,29.90
2009,07,28,19,13,29.90
2009,07,28,19,14,29.90
2009,07,28,19,15,29.80
2009,07,28,19,16,29.80
2009,07,28,19,17,29.80
2009,07,28,19,18,29.80
2009,07,28,19,19,29.70
2009,07,28,19,20,29.70
2009,07,28,19,21,29.60
2009,07,28,19,22,29.60
2009,07,28,19,23,29.50
2009,07,28,19,24,29.40
2009,07,28,19,25,29.40
2009,07,28,19,26,29.30
2009,07,28,19,27,29.30
2009,07,28,19,28,29.10
2009,07,28,19,29,29.10
2009,07,28,19,30,29.00
2009,07,28,19,31,29.00
2009,07,28,19,32,28.90
2009,07,28,19,33,28.90
2009,07,28,19,34,28.80
2009,07,28,19,35,28.80
2009,07,28,19,36,28.80
2009,07,28,19,37,28.80
2009,07,28,19,38,28.80
2009,07,28,19,39,28.80
2009,07,28,19,40,28.90
2009,07,28,19,41,28.90
2009,07,28,19,42,28.90
2009,07,28,19,43,28.90
2009,07,28,19,44,28.90
2009,07,28,19,45,28.90
2009,07,28,19,46,28.90
2009,07,28,19,47,29.00
2009,07,28,19,48,29.00
2009,07,28,19,49,29.00
2009,07,28,19,50,29.00
2009,07,28,19,51,29.00
2009,07,28,19,52,29.00
2009,07,28,19,53,29.00
2009,07,28,19,54,29.00
2009,07,28,19,55,29.00
2009,07,28,19,56,29.00
2009,07,28,19,57,29.00
2009,07,28,19,58,29.00
2009,07,28,19,59,29.00
2009,07,28,20,00,29.00
2009,07,28,20,01,29.00
2009,07,28,20,02,28.90
2009,07,28,20,03,28.90
2009,07,28,20,04,28.90
2009,07,28,20,05,28.90
2009,07,28,20,06,28.80
2009,07,28,20,07,28.90
2009,07,28,20,08,28.80
2009,07,28,20,09,28.80
2009,07,28,20,10,28.80
2009,07,28,20,11,28.80
2009,07,28,20,12,28.80
2009,07,28,20,13,28.80
2009,07,28,20,14,28.80
2009,07,28,20,15,28.80
2009,07,28,20,16,28.80
2009,07,28,20,17,28.80
2009,07,28,20,18,28.80
2009,07,28,20,19,28.80
2009,07,28,20,20,28.80
2009,07,28,20,21,28.80
2009,07,28,20,22,28.80
2009,07,28,20,23,28.70
2009,07,28,20,24,28.70
2009,07,28,20,25,28.70
2009,07,28,20,26,28.60
2009,07,28,20,27,28.60
2009,07,28,20,28,28.60
2009,07,28,20,29,28.50
2009,07,28,20,30,28.50
2009,07,28,20,31,28.40
2009,07,28,20,32,28.40
2009,07,28,20,33,28.30
2009,07,28,20,34,28.30
2009,07,28,20,35,28.30
2009,07,28,20,36,28.30
2009,07,28,20,37,28.30
2009,07,28,20,38,28.20
2009,07,28,20,39,28.20
2009,07,28,20,40,28.20
2009,07,28,20,41,28.20
2009,07,28,20,42,28.20
2009,07,28,20,43,28.20
2009,07,28,20,44,28.20
2009,07,28,20,45,28.20
2009,07,28,20,46,28.20
2009,07,28,20,47,28.20
2009,07,28,20,48,28.20
2009,07,28,20,49,28.10
2009,07,28,20,50,28.10
2009,07,28,20,51,28.10
2009,07,28,20,52,28.00
2009,07,28,20,53,28.00
2009,07,28,20,54,27.90
2009,07,28,20,55,27.90
2009,07,28,20,56,27.80
2009,07,28,20,57,27.80
2009,07,28,20,58,27.80
2009,07,28,20,59,27.70
2009,07,28,21,00,27.70
2009,07,28,21,01,27.70
2009,07,28,21,02,27.60
2009,07,28,21,03,27.60
2009,07,28,21,04,27.60
2009,07,28,21,05,27.60
2009,07,28,21,06,27.50
2009,07,28,21,07,27.50
2009,07,28,21,08,27.50
2009,07,28,21,09,27.40
2009,07,28,21,10,27.40
2009,07,28,21,11,27.40
2009,07,28,21,12,27.30
2009,07,28,21,13,27.30
2009,07,28,21,14,27.30
2009,07,28,21,15,27.30
2009,07,28,21,16,27.20
2009,07,28,21,17,27.20
2009,07,28,21,18,27.20
2009,07,28,21,19,27.20
2009,07,28,21,20,27.20
2009,07,28,21,21,27.20
2009,07,28,21,22,27.20
2009,07,28,21,23,27.20
2009,07,28,21,24,27.20
2009,07,28,21,25,27.10
2009,07,28,21,26,27.10
2009,07,28,21,27,27.10
2009,07,28,21,28,27.10
2009,07,28,21,29,27.00
2009,07,28,21,30,27.00
2009,07,28,21,31,26.90
2009,07,28,21,32,26.90
2009,07,28,21,33,26.90
2009,07,28,21,34,26.80
2009,07,28,21,35,26.80
2009,07,28,21,36,26.80
2009,07,28,21,37,26.70
2009,07,28,21,38,26.70
2009,07,28,21,39,26.70
2009,07,28,21,40,26.70
2009,07,28,21,41,26.60
2009,07,28,21,42,26.60
2009,07,28,21,43,26.60
2009,07,28,21,44,26.60
2009,07,28,21,45,26.50
2009,07,28,21,46,26.50
2009,07,28,21,47,26.50
2009,07,28,21,48,26.40
2009,07,28,21,49,26.40
2009,07,28,21,50,26.40
2009,07,28,21,51,26.40
2009,07,28,21,52,26.40
2009,07,28,21,53,26.30
2009,07,28,21,54,26.30
2009,07,28,21,55,26.30
2009,07,28,21,56,26.30
2009,07,28,21,57,26.30
2009,07,28,21,58,26.20
2009,07,28,21,59,26.20
2009,07,28,22,00,26.20
2009,07,28,22,01,26.20
2009,07,28,22,02,26.10
2009,07,28,22,03,26.10
2009,07,28,22,04,26.00
2009,07,28,22,05,26.00
2009,07,28,22,06,25.90
2009,07,28,22,07,25.90
2009,07,28,22,08,25.90
2009,07,28,22,09,25.90
2009,07,28,22,10,25.80
2009,07,28,22,11,25.80
2009,07,28,22,12,25.80
2009,07,28,22,13,25.70
2009,07,28,22,14,25.70
2009,07,28,22,15,25.60
2009,07,28,22,16,25.60
2009,07,28,22,17,25.50
2009,07,28,22,18,25.50
2009,07,28,22,19,25.50
2009,07,28,22,20,25.40
2009,07,28,22,21,25.40
2009,07,28,22,22,25.40
2009,07,28,22,23,25.40
2009,07,28,22,24,25.30
2009,07,28,22,25,25.30
2009,07,28,22,26,25.30
2009,07,28,22,27,25.30
2009,07,28,22,28,25.30
2009,07,28,22,29,25.30
2009,07,28,22,30,25.30
2009,07,28,22,31,25.30
2009,07,28,22,32,25.30
2009,07,28,22,33,25.20
2009,07,28,22,34,25.20
2009,07,28,22,35,25.20
2009,07,28,22,36,25.20
2009,07,28,22,37,25.20
2009,07,28,22,38,25.20
2009,07,28,22,39,25.10
2009,07,28,22,40,25.10
2009,07,28,22,41,25.10
2009,07,28,22,42,25.10
2009,07,28,22,43,25.00
2009,07,28,22,44,24.90
2009,07,28,22,45,24.90
2009,07,28,22,46,24.90
2009,07,28,22,47,24.80
2009,07,28,22,48,24.80
2009,07,28,22,49,24.80
2009,07,28,22,50,24.80
2009,07,28,22,51,24.80
2009,07,28,22,52,24.70
2009,07,28,22,53,24.60
2009,07,28,22,54,24.50
2009,07,28,22,55,24.40
2009,07,28,22,56,24.40
2009,07,28,22,57,24.30
2009,07,28,22,58,24.20
2009,07,28,22,59,24.10
2009,07,28,23,00,24.10
2009,07,28,23,01,24.00
2009,07,28,23,02,23.90
2009,07,28,23,03,23.90
2009,07,28,23,04,23.80
2009,07,28,23,05,23.70
2009,07,28,23,06,23.60
2009,07,28,23,07,23.50
2009,07,28,23,08,23.40
2009,07,28,23,09,23.30
2009,07,28,23,10,23.20
2009,07,28,23,11,23.10
2009,07,28,23,12,23.00
2009,07,28,23,13,22.90
2009,07,28,23,14,22.80
2009,07,28,23,15,22.70
2009,07,28,23,16,22.60
2009,07,28,23,17,22.60
2009,07,28,23,18,22.50
2009,07,28,23,19,22.50
2009,07,28,23,20,22.40
2009,07,28,23,21,22.30
2009,07,28,23,22,22.30
2009,07,28,23,23,22.30
2009,07,28,23,24,22.20
2009,07,28,23,25,22.20
2009,07,28,23,26,22.10
2009,07,28,23,27,22.10
2009,07,28,23,28,22.00
2009,07,28,23,29,22.00
2009,07,28,23,30,21.90
2009,07,28,23,31,21.90
2009,07,28,23,32,21.80
2009,07,28,23,33,21.80
2009,07,28,23,34,21.80
2009,07,28,23,35,21.80
2009,07,28,23,36,21.70
2009,07,28,23,37,21.70
2009,07,28,23,38,21.70
2009,07,28,23,39,21.70
2009,07,28,23,40,21.60
2009,07,28,23,41,21.60
2009,07,28,23,42,21.50
2009,07,28,23,43,21.40
2009,07,28,23,44,21.40
2009,07,28,23,45,21.40
2009,07,28,23,46,21.30
2009,07,28,23,47,21.30
2009,07,28,23,48,21.30
2009,07,28,23,49,21.20
2009,07,28,23,50,21.20
2009,07,28,23,51,21.20
2009,07,28,23,52,21.10
2009,07,28,23,53,21.10
2009,07,28,23,54,21.10
2009,07,28,23,55,21.10
2009,07,28,23,56,21.00
2009,07,28,23,57,21.00
2009,07,28,23,58,21.00
2009,07,28,23,59,20.90
